CPA927 ZGHA-VHHH

Flight info

Callsign CPA927
Flight time N/A
Altitude 34000
Route UBM9W/18R UBMOG W615 IDAXI R473 WYN W18 NLG W23 ZUH R473 SIERA SIER7C/07C
Aircraft A359/H-SDE2E3GHIJ1J3J4J5LM1ORWXYZ/LB1D1

Departure

Time 2026-04-29 18:00
Airport Changsha Huanghua International Airport (ZGHA)

Arrival

Time N/A
Airport Hong Kong International Airport (VHHH)
Time Latitude Longitude Altitude Speed Heading
2026-04-29 17:44 28.19615 113.21549 224 ft 0 kts 260°
2026-04-29 17:50 28.19616 113.21553 225 ft 2 kts 259°
2026-04-29 17:50 28.19618 113.21568 225 ft 2 kts 259°
2026-04-29 17:50 28.19621 113.21584 225 ft 2 kts 260°
2026-04-29 17:51 28.19622 113.21601 225 ft 2 kts 277°
2026-04-29 17:51 28.19618 113.21618 225 ft 2 kts 297°
2026-04-29 17:51 28.19610 113.21632 225 ft 2 kts 314°
2026-04-29 17:51 28.19599 113.21642 225 ft 2 kts 332°
2026-04-29 17:52 28.19585 113.21648 225 ft 2 kts 349°
2026-04-29 17:52 28.19580 113.21649 225 ft 0 kts 356°
2026-04-29 17:52 28.19577 113.21649 225 ft 0 kts 357°
2026-04-29 17:55 28.19597 113.21648 224 ft 6 kts 356°
2026-04-29 17:55 28.19657 113.21645 224 ft 10 kts 356°
2026-04-29 17:56 28.19727 113.21645 224 ft 6 kts 18°
2026-04-29 17:56 28.19756 113.21687 224 ft 8 kts 64°
2026-04-29 17:56 28.19803 113.21728 225 ft 9 kts 12°
2026-04-29 17:56 28.19872 113.21729 225 ft 9 kts 356°
2026-04-29 17:57 28.19957 113.21723 224 ft 14 kts 356°
2026-04-29 17:57 28.20079 113.21716 225 ft 20 kts 356°
2026-04-29 17:57 28.20231 113.21706 225 ft 23 kts 356°
2026-04-29 17:57 28.20384 113.21697 224 ft 21 kts 356°
2026-04-29 17:58 28.20516 113.21689 224 ft 16 kts 356°
2026-04-29 17:58 28.20573 113.21695 224 ft 0 kts 26°
2026-04-29 17:58 28.20578 113.21699 224 ft 2 kts 35°
2026-04-29 17:58 28.20597 113.21740 225 ft 9 kts 73°
2026-04-29 17:59 28.20604 113.21823 225 ft 9 kts 95°
2026-04-29 17:59 28.20573 113.21870 224 ft 7 kts 155°
2026-04-29 17:59 28.20520 113.21878 224 ft 13 kts 175°
2026-04-29 17:59 28.20167 113.21899 225 ft 87 kts 177°
2026-04-29 18:00 28.19356 113.21950 225 ft 148 kts 178°
2026-04-29 18:00 28.18229 113.22023 635 ft 163 kts 176°
2026-04-29 18:00 28.17157 113.22089 1436 ft 153 kts 175°
2026-04-29 18:00 28.16080 113.22170 1952 ft 159 kts 175°
2026-04-29 18:01 28.14947 113.22257 2314 ft 170 kts 175°
2026-04-29 18:01 28.13735 113.22343 2648 ft 185 kts 175°
2026-04-29 18:01 28.12392 113.22433 2996 ft 203 kts 176°
2026-04-29 18:01 28.10932 113.22574 3434 ft 219 kts 165°
2026-04-29 18:02 28.09484 113.23210 3950 ft 231 kts 152°
2026-04-29 18:02 28.08046 113.24086 4467 ft 245 kts 150°
2026-04-29 18:02 28.06505 113.25040 4966 ft 262 kts 150°
2026-04-29 18:02 28.04867 113.26018 5623 ft 272 kts 151°
2026-04-29 18:03 28.03176 113.26997 6458 ft 275 kts 152°
2026-04-29 18:03 28.01483 113.27956 7296 ft 278 kts 152°
2026-04-29 18:03 27.99760 113.28922 8131 ft 281 kts 152°
2026-04-29 18:03 27.97992 113.29906 8973 ft 284 kts 152°
2026-04-29 18:04 27.96223 113.30885 9799 ft 288 kts 152°
2026-04-29 18:04 27.94443 113.31869 10593 ft 291 kts 152°
2026-04-29 18:04 27.92589 113.32893 11118 ft 305 kts 152°
2026-04-29 18:04 27.90634 113.33973 11548 ft 322 kts 152°
2026-04-29 18:05 27.88594 113.35096 11950 ft 338 kts 153°
2026-04-29 18:05 27.86431 113.36281 12330 ft 355 kts 153°
2026-04-29 18:05 27.84154 113.37528 12678 ft 371 kts 153°
2026-04-29 18:05 27.81774 113.38834 12999 ft 387 kts 153°
2026-04-29 18:06 27.79328 113.40176 13493 ft 397 kts 153°
2026-04-29 18:06 27.76846 113.41539 14180 ft 400 kts 153°
2026-04-29 18:06 27.74364 113.42900 14869 ft 403 kts 153°
2026-04-29 18:06 27.71813 113.44299 15538 ft 406 kts 153°
2026-04-29 18:07 27.69271 113.45692 16182 ft 409 kts 153°
2026-04-29 18:07 27.66729 113.47086 16808 ft 412 kts 153°
2026-04-29 18:07 27.64137 113.48505 17431 ft 415 kts 153°
2026-04-29 18:07 27.61556 113.49918 18030 ft 418 kts 153°
2026-04-29 18:08 27.58935 113.51353 18618 ft 420 kts 153°
2026-04-29 18:08 27.56298 113.52795 19190 ft 423 kts 153°
2026-04-29 18:08 27.53654 113.54239 19746 ft 426 kts 153°
2026-04-29 18:08 27.51000 113.55688 20338 ft 427 kts 153°
2026-04-29 18:09 27.48314 113.57155 20910 ft 429 kts 153°
2026-04-29 18:09 27.45630 113.58619 21438 ft 432 kts 153°
2026-04-29 18:09 27.42924 113.60094 21947 ft 435 kts 153°
2026-04-29 18:09 27.40236 113.61558 22442 ft 438 kts 153°
2026-04-29 18:10 27.37492 113.63051 22933 ft 440 kts 153°
2026-04-29 18:10 27.34704 113.64567 23415 ft 443 kts 153°
2026-04-29 18:10 27.31961 113.66063 23873 ft 446 kts 154°
2026-04-29 18:10 27.29186 113.67585 24318 ft 448 kts 154°
2026-04-29 18:11 27.26353 113.69079 24747 ft 451 kts 157°
2026-04-29 18:11 27.23418 113.70314 25162 ft 454 kts 162°
2026-04-29 18:11 27.20361 113.71246 25564 ft 456 kts 167°
2026-04-29 18:11 27.17271 113.71865 25955 ft 459 kts 171°
2026-04-29 18:12 27.14119 113.72376 26333 ft 461 kts 172°
2026-04-29 18:12 27.10920 113.72870 26683 ft 463 kts 172°
2026-04-29 18:12 27.07713 113.73365 27021 ft 466 kts 172°
2026-04-29 18:12 27.04523 113.73862 27353 ft 468 kts 172°
2026-04-29 18:13 27.01315 113.74372 27641 ft 471 kts 173°
2026-04-29 18:13 26.98025 113.74898 27788 ft 479 kts 173°
2026-04-29 18:13 26.94725 113.75415 27928 ft 485 kts 173°
2026-04-29 18:13 26.91380 113.75939 28078 ft 491 kts 173°
2026-04-29 18:14 26.88063 113.76461 28310 ft 494 kts 173°
2026-04-29 18:14 26.84647 113.77000 28579 ft 497 kts 173°
2026-04-29 18:14 26.81230 113.77541 28851 ft 499 kts 173°
2026-04-29 18:14 26.77791 113.78097 29129 ft 501 kts 172°
2026-04-29 18:15 26.74400 113.78788 29496 ft 501 kts 169°
2026-04-29 18:15 26.70983 113.79682 29923 ft 499 kts 166°
2026-04-29 18:15 26.67649 113.80712 30335 ft 498 kts 165°
2026-04-29 18:15 26.64342 113.81752 30724 ft 496 kts 165°
2026-04-29 18:16 26.61037 113.82790 31094 ft 495 kts 165°
2026-04-29 18:16 26.57724 113.83827 31455 ft 495 kts 165°
2026-04-29 18:16 26.54454 113.84849 31807 ft 494 kts 165°
2026-04-29 18:16 26.51126 113.85888 32161 ft 493 kts 165°
2026-04-29 18:17 26.47890 113.86880 32497 ft 492 kts 166°
2026-04-29 18:17 26.44568 113.87852 32799 ft 492 kts 166°
2026-04-29 18:17 26.41286 113.88797 33050 ft 493 kts 166°
2026-04-29 18:17 26.37944 113.89757 33288 ft 494 kts 166°
2026-04-29 18:18 26.34642 113.90705 33519 ft 495 kts 166°
2026-04-29 18:18 26.31314 113.91663 33749 ft 495 kts 166°
2026-04-29 18:18 26.28008 113.92615 33970 ft 496 kts 166°
2026-04-29 18:18 26.24649 113.93582 34178 ft 497 kts 166°
2026-04-29 18:19 26.21309 113.94544 34229 ft 498 kts 166°
2026-04-29 18:19 26.14626 113.96467 34239 ft 498 kts 166°
2026-04-29 18:20 26.07950 113.98383 34241 ft 498 kts 166°
2026-04-29 18:20 26.01273 114.00301 34241 ft 498 kts 166°
2026-04-29 18:21 25.94608 114.02284 34241 ft 498 kts 166°
2026-04-29 18:21 25.88011 114.04258 34240 ft 498 kts 166°
2026-04-29 18:22 25.81366 114.06227 34224 ft 498 kts 166°
2026-04-29 18:22 25.74681 114.08205 34190 ft 499 kts 166°
2026-04-29 18:23 25.68000 114.10181 34153 ft 499 kts 166°
2026-04-29 18:23 25.61323 114.12154 34129 ft 499 kts 166°
2026-04-29 18:24 25.54620 114.14134 34117 ft 500 kts 166°
2026-04-29 18:24 25.47971 114.16095 34111 ft 500 kts 166°
2026-04-29 18:25 25.41259 114.18072 34108 ft 500 kts 166°
2026-04-29 18:25 25.34564 114.20041 34107 ft 500 kts 166°
2026-04-29 18:26 25.27866 114.22007 34106 ft 500 kts 166°
2026-04-29 18:26 25.21159 114.23975 34106 ft 500 kts 166°
2026-04-29 18:27 25.14422 114.25463 34105 ft 499 kts 173°
2026-04-29 18:27 25.07520 114.25954 34104 ft 500 kts 181°
2026-04-29 18:28 25.00592 114.25403 34104 ft 504 kts 188°
2026-04-29 18:28 24.93681 114.23985 34106 ft 505 kts 191°
2026-04-29 18:29 24.87213 114.22550 34106 ft 505 kts 191°
2026-04-29 18:29 24.80160 114.21010 34106 ft 505 kts 191°
2026-04-29 18:30 24.73294 114.19519 34106 ft 505 kts 191°
2026-04-29 18:30 24.66454 114.18036 34106 ft 505 kts 191°
2026-04-29 18:31 24.59635 114.16559 34106 ft 505 kts 191°
2026-04-29 18:31 24.52751 114.15068 34106 ft 505 kts 191°
2026-04-29 18:32 24.45925 114.13591 34106 ft 505 kts 191°
2026-04-29 18:32 24.35762 114.11368 34106 ft 505 kts 192°
2026-04-29 18:33 24.29036 114.09437 34106 ft 505 kts 195°
2026-04-29 18:33 24.22391 114.07407 34106 ft 505 kts 195°
2026-04-29 18:34 24.16848 114.05714 34106 ft 505 kts 195°
2026-04-29 18:34 24.09096 114.03355 34106 ft 505 kts 195°
2026-04-29 18:35 24.02554 114.01368 34106 ft 505 kts 195°
2026-04-29 18:35 23.95931 113.99359 34106 ft 505 kts 195°
2026-04-29 18:36 23.89609 113.97444 34106 ft 505 kts 195°